QTR88H EDDM-OTHH

Flight info

Callsign QTR88H
Flight time 5h 12m
Altitude 37000
Route ROTAX3S ROTAX L603 LATLO DCT OBEDI DCT DIPSA DCT PODET DCT GUBOK DCT DER DCT SOMUN DCT ELGEB DCT SOSEK DCT NISVA DCT USALI DCT OTKOK DCT RODIP DCT BELGI UT38 VESAR DCT NIKAS R785 RASLI P559 TRF R23 NEVOL N318 TAMRO T503 KSA N687 KINIB Z511 GISRA L681 ORLEK
Aircraft B789/H-SDE1E2E3FGHIJ2J3J4J5M1RWXY/LB1D1

Departure

Time 2026-05-05 19:44
Airport Munich Airport (EDDM)

Arrival

Time 2026-05-06 00:56
Airport Hamad International Airport (OTHH)
Time Latitude Longitude Altitude Speed Heading
2026-05-05 18:59 48.35375 11.78303 1477 ft 0 kts 81°
2026-05-05 19:24 48.35375 11.78301 1477 ft 2 kts 81°
2026-05-05 19:24 48.35372 11.78263 1464 ft 5 kts 83°
2026-05-05 19:24 48.35368 11.78223 1464 ft 5 kts 83°
2026-05-05 19:25 48.35366 11.78198 1464 ft 6 kts 79°
2026-05-05 19:25 48.35362 11.78172 1464 ft 6 kts 28°
2026-05-05 19:25 48.35343 11.78166 1464 ft 6 kts
2026-05-05 19:25 48.35317 11.78165 1464 ft 6 kts 353°
2026-05-05 19:26 48.35290 11.78172 1464 ft 6 kts 349°
2026-05-05 19:26 48.35279 11.78175 1468 ft 7 kts 352°
2026-05-05 19:30 48.35284 11.78174 1469 ft 2 kts 351°
2026-05-05 19:31 48.35303 11.78170 1467 ft 4 kts 351°
2026-05-05 19:31 48.35323 11.78160 1464 ft 2 kts 332°
2026-05-05 19:31 48.35337 11.78143 1464 ft 3 kts 314°
2026-05-05 19:31 48.35346 11.78113 1467 ft 4 kts 286°
2026-05-05 19:32 48.35347 11.78053 1469 ft 9 kts 265°
2026-05-05 19:32 48.35339 11.77941 1477 ft 11 kts 263°
2026-05-05 19:32 48.35326 11.77835 1466 ft 7 kts 243°
2026-05-05 19:32 48.35311 11.77811 1471 ft 2 kts 214°
2026-05-05 19:33 48.35297 11.77803 1466 ft 4 kts 199°
2026-05-05 19:33 48.35265 11.77796 1470 ft 4 kts 176°
2026-05-05 19:33 48.35210 11.77804 1469 ft 12 kts 174°
2026-05-05 19:33 48.35112 11.77822 1465 ft 15 kts 173°
2026-05-05 19:34 48.35009 11.77841 1466 ft 14 kts 173°
2026-05-05 19:34 48.34925 11.77857 1474 ft 13 kts 173°
2026-05-05 19:34 48.34842 11.77871 1473 ft 6 kts 173°
2026-05-05 19:35 48.34755 11.77886 1466 ft 0 kts 173°
2026-05-05 19:37 48.34753 11.77887 1477 ft 0 kts 173°
2026-05-05 19:38 48.34708 11.77895 1474 ft 11 kts 170°
2026-05-05 19:38 48.34679 11.77926 1468 ft 3 kts 124°
2026-05-05 19:38 48.34667 11.77966 1470 ft 6 kts 110°
2026-05-05 19:38 48.34670 11.78023 1469 ft 9 kts 81°
2026-05-05 19:39 48.34683 11.78160 1466 ft 15 kts 82°
2026-05-05 19:39 48.34695 11.78317 1468 ft 16 kts 83°
2026-05-05 19:39 48.34708 11.78485 1474 ft 17 kts 83°
2026-05-05 19:39 48.34722 11.78666 1469 ft 18 kts 84°
2026-05-05 19:40 48.34736 11.78859 1468 ft 19 kts 83°
2026-05-05 19:40 48.34752 11.79060 1473 ft 20 kts 83°
2026-05-05 19:40 48.34768 11.79270 1467 ft 21 kts 83°
2026-05-05 19:40 48.34785 11.79486 1469 ft 21 kts 83°
2026-05-05 19:41 48.34802 11.79706 1470 ft 21 kts 83°
2026-05-05 19:41 48.34818 11.79927 1477 ft 22 kts 83°
2026-05-05 19:41 48.34836 11.80158 1469 ft 22 kts 83°
2026-05-05 19:41 48.34853 11.80377 1468 ft 16 kts 83°
2026-05-05 19:42 48.34833 11.80502 1466 ft 10 kts 126°
2026-05-05 19:42 48.34793 11.80543 1471 ft 4 kts 161°
2026-05-05 19:42 48.34765 11.80554 1468 ft 4 kts 167°
2026-05-05 19:42 48.34733 11.80563 1473 ft 5 kts 171°
2026-05-05 19:43 48.34684 11.80569 1477 ft 8 kts 184°
2026-05-05 19:43 48.34615 11.80548 1478 ft 12 kts 205°
2026-05-05 19:43 48.34533 11.80458 1469 ft 17 kts 223°
2026-05-05 19:43 48.34469 11.80283 1483 ft 22 kts 260°
2026-05-05 19:44 48.34434 11.79850 1473 ft 80 kts 263°
2026-05-05 19:44 48.34334 11.78559 1474 ft 166 kts 263°
2026-05-05 19:44 48.34183 11.76702 2375 ft 176 kts 263°
2026-05-05 19:44 48.34049 11.74850 3599 ft 182 kts 265°
2026-05-05 19:45 48.33735 11.72869 4374 ft 212 kts 239°
2026-05-05 19:45 48.32673 11.71373 5686 ft 214 kts 214°
2026-05-05 19:45 48.31173 11.70830 6647 ft 235 kts 188°
2026-05-05 19:45 48.29416 11.70780 6985 ft 276 kts 178°
2026-05-05 19:46 48.27433 11.71962 6991 ft 345 kts 151°
2026-05-05 19:46 48.25262 11.74177 7004 ft 409 kts 146°
2026-05-05 19:46 48.22888 11.76794 7003 ft 420 kts 146°
2026-05-05 19:46 48.20611 11.79144 6991 ft 378 kts 148°
2026-05-05 19:47 48.18474 11.81275 6984 ft 360 kts 144°
2026-05-05 19:47 48.16805 11.83955 6983 ft 344 kts 131°
2026-05-05 19:47 48.15305 11.86637 7233 ft 331 kts 132°
2026-05-05 19:47 48.13894 11.89184 9194 ft 303 kts 132°
2026-05-05 19:48 48.12598 11.91547 10939 ft 298 kts 132°
2026-05-05 19:48 48.11214 11.94048 11558 ft 327 kts 132°
2026-05-05 19:48 48.09700 11.96781 12121 ft 356 kts 132°
2026-05-05 19:48 48.08068 11.99744 12906 ft 376 kts 131°
2026-05-05 19:49 48.06704 12.03096 14175 ft 384 kts 114°
2026-05-05 19:49 48.06053 12.05581 14862 ft 390 kts 113°
2026-05-05 19:49 48.04790 12.10660 16357 ft 399 kts 112°
2026-05-05 19:49 48.03819 12.14581 17460 ft 405 kts 113°
2026-05-05 19:50 48.02807 12.18549 18488 ft 413 kts 113°
2026-05-05 19:50 48.01772 12.22581 19469 ft 419 kts 113°
2026-05-05 19:50 48.00728 12.26697 20444 ft 425 kts 114°
2026-05-05 19:50 47.99679 12.30838 21400 ft 431 kts 114°
2026-05-05 19:51 47.98583 12.35030 22295 ft 436 kts 118°
2026-05-05 19:51 47.97040 12.38911 23219 ft 435 kts 130°
2026-05-05 19:51 47.95130 12.42063 23970 ft 435 kts 141°
2026-05-05 19:51 47.92916 12.45177 24709 ft 440 kts 141°
2026-05-05 19:52 47.90662 12.48302 25469 ft 445 kts 141°
2026-05-05 19:52 47.88384 12.51457 26226 ft 450 kts 141°
2026-05-05 19:52 47.86087 12.54658 26969 ft 455 kts 141°
2026-05-05 19:52 47.83761 12.57901 27727 ft 460 kts 141°
2026-05-05 19:53 47.81434 12.61211 28463 ft 467 kts 139°
2026-05-05 19:53 47.79139 12.64672 29195 ft 472 kts 139°
2026-05-05 19:53 47.76798 12.68134 29938 ft 477 kts 140°
2026-05-05 19:53 47.74438 12.71639 30587 ft 482 kts 139°
2026-05-05 19:54 47.72071 12.75184 31246 ft 486 kts 139°
2026-05-05 19:54 47.69675 12.78763 31878 ft 490 kts 139°
2026-05-05 19:54 47.67264 12.82338 32677 ft 489 kts 140°
2026-05-05 19:54 47.64865 12.85890 33687 ft 485 kts 140°
2026-05-05 19:55 47.62478 12.89424 34445 ft 485 kts 139°
2026-05-05 19:55 47.60086 12.92961 35182 ft 485 kts 139°
2026-05-05 19:55 47.57701 12.96482 35940 ft 484 kts 139°
2026-05-05 19:55 47.55310 13.00007 36611 ft 485 kts 139°
2026-05-05 19:56 47.52900 13.03551 36828 ft 495 kts 139°
2026-05-05 19:56 47.48030 13.10715 36827 ft 488 kts 139°
2026-05-05 19:57 47.43250 13.17714 36837 ft 481 kts 139°
2026-05-05 19:57 47.39290 13.23498 36842 ft 483 kts 139°
2026-05-05 19:58 47.34512 13.30468 36856 ft 483 kts 139°
2026-05-05 19:58 47.30400 13.38388 36872 ft 491 kts 126°
2026-05-05 19:59 47.26701 13.46850 36883 ft 492 kts 126°
2026-05-05 19:59 47.22971 13.55288 36891 ft 491 kts 126°
2026-05-05 20:00 47.19250 13.63706 36891 ft 491 kts 126°
2026-05-05 20:00 47.15516 13.72118 36889 ft 491 kts 126°
2026-05-05 20:01 47.11779 13.80513 36895 ft 491 kts 126°
2026-05-05 20:01 47.08038 13.88894 36898 ft 491 kts 126°
2026-05-05 20:02 47.04288 13.97266 36900 ft 490 kts 126°
2026-05-05 20:02 47.00538 14.05616 36901 ft 491 kts 126°
2026-05-05 20:03 46.96780 14.13957 36927 ft 490 kts 126°
2026-05-05 20:03 46.93012 14.22293 36922 ft 491 kts 126°
2026-05-05 20:04 46.89262 14.30569 36922 ft 492 kts 126°
2026-05-05 20:04 46.85479 14.38888 36926 ft 492 kts 126°
2026-05-05 20:05 46.81688 14.47203 36924 ft 492 kts 126°
2026-05-05 20:05 46.77886 14.55515 36925 ft 492 kts 126°
2026-05-05 20:06 46.74081 14.63811 36924 ft 493 kts 126°
2026-05-05 20:06 46.70262 14.72111 36927 ft 493 kts 126°
2026-05-05 20:07 46.66430 14.80415 36921 ft 494 kts 126°
2026-05-05 20:07 46.62599 14.88691 36930 ft 493 kts 126°
2026-05-05 20:08 46.58353 14.96469 36940 ft 491 kts 134°
2026-05-05 20:08 46.53798 15.03864 36942 ft 492 kts 134°
2026-05-05 20:09 46.49233 15.11259 36938 ft 491 kts 134°
2026-05-05 20:09 46.44662 15.18640 36937 ft 491 kts 134°
2026-05-05 20:10 46.40096 15.25996 36930 ft 491 kts 135°
2026-05-05 20:10 46.35519 15.33349 36925 ft 492 kts 135°
2026-05-05 20:11 46.30938 15.40689 36922 ft 491 kts 135°
2026-05-05 20:11 46.26351 15.48017 36921 ft 492 kts 135°
2026-05-05 20:12 46.21759 15.55335 36929 ft 492 kts 135°
2026-05-05 20:12 46.17178 15.62685 36954 ft 493 kts 130°
2026-05-05 20:13 46.13228 15.70735 36969 ft 496 kts 127°
2026-05-05 20:13 46.09275 15.78864 36967 ft 496 kts 127°
2026-05-05 20:14 46.05312 15.86983 36964 ft 495 kts 127°
2026-05-05 20:14 46.01347 15.95087 36962 ft 495 kts 127°
2026-05-05 20:15 45.97374 16.03181 36968 ft 495 kts 127°
2026-05-05 20:15 45.93401 16.11256 36969 ft 495 kts 127°
2026-05-05 20:16 45.89418 16.19323 36974 ft 495 kts 127°
2026-05-05 20:16 45.85429 16.27383 36976 ft 496 kts 127°
2026-05-05 20:17 45.81430 16.35438 36973 ft 495 kts 128°
2026-05-05 20:17 45.77429 16.43474 36971 ft 495 kts 128°
2026-05-05 20:18 45.73428 16.51489 36963 ft 495 kts 128°
2026-05-05 20:18 45.69411 16.59513 36958 ft 496 kts 128°
2026-05-05 20:19 45.65388 16.67525 36961 ft 496 kts 128°
2026-05-05 20:19 45.61353 16.75538 36971 ft 497 kts 128°
2026-05-05 20:20 45.57313 16.83539 36971 ft 497 kts 128°
2026-05-05 20:20 45.53260 16.91543 36970 ft 498 kts 128°
2026-05-05 20:21 45.49203 16.99534 36971 ft 497 kts 128°
2026-05-05 20:21 45.45139 17.07515 36988 ft 497 kts 128°
2026-05-05 20:22 45.41068 17.15486 36984 ft 499 kts 128°
2026-05-05 20:22 45.36982 17.23465 36981 ft 499 kts 128°
2026-05-05 20:23 45.32888 17.31438 36984 ft 499 kts 128°
2026-05-05 20:23 45.28785 17.39405 36979 ft 500 kts 128°
2026-05-05 20:24 45.24671 17.47372 36969 ft 500 kts 128°
2026-05-05 20:24 45.20553 17.55324 36980 ft 500 kts 128°
2026-05-05 20:25 45.16432 17.63260 36970 ft 500 kts 128°
2026-05-05 20:25 45.12304 17.71186 36979 ft 500 kts 128°
2026-05-05 20:26 45.08168 17.79107 36971 ft 501 kts 128°
2026-05-05 20:26 45.03996 17.87011 36982 ft 501 kts 131°
2026-05-05 20:27 44.99659 17.94729 36980 ft 502 kts 129°
2026-05-05 20:27 44.97771 17.98887 37005 ft 505 kts 117°
2026-05-05 20:27 44.96248 18.03355 36992 ft 506 kts 116°
2026-05-05 20:28 44.93258 18.12356 36989 ft 506 kts 116°
2026-05-05 20:28 44.90221 18.21326 36993 ft 507 kts 116°
2026-05-05 20:29 44.87196 18.30303 36991 ft 507 kts 116°
2026-05-05 20:29 44.84153 18.39268 36986 ft 507 kts 116°
2026-05-05 20:30 44.81124 18.48177 36985 ft 508 kts 116°
2026-05-05 20:30 44.78060 18.57153 36988 ft 509 kts 116°
2026-05-05 20:31 44.74991 18.66115 36995 ft 508 kts 116°
2026-05-05 20:31 44.71914 18.75070 36999 ft 509 kts 116°
2026-05-05 20:32 44.68825 18.84030 37003 ft 510 kts 116°
2026-05-05 20:32 44.65726 18.92990 37000 ft 509 kts 116°
2026-05-05 20:33 44.62621 19.01934 37000 ft 510 kts 116°
2026-05-05 20:33 44.59486 19.10867 36999 ft 510 kts 120°
2026-05-05 20:34 44.55941 19.19470 36994 ft 510 kts 120°
2026-05-05 20:34 44.52392 19.28077 36993 ft 510 kts 121°
2026-05-05 20:35 44.48824 19.36676 36992 ft 510 kts 121°
2026-05-05 20:35 44.45257 19.45267 36996 ft 510 kts 121°
2026-05-05 20:36 44.41683 19.53837 37000 ft 510 kts 121°
2026-05-05 20:36 44.38102 19.62404 37005 ft 510 kts 121°
2026-05-05 20:37 44.34514 19.70956 37000 ft 510 kts 121°
2026-05-05 20:37 44.30925 19.79491 37003 ft 510 kts 121°
2026-05-05 20:38 44.27329 19.88013 37003 ft 509 kts 121°
2026-05-05 20:38 44.23729 19.96520 37004 ft 509 kts 121°
2026-05-05 20:39 44.20124 20.05015 37002 ft 509 kts 121°
2026-05-05 20:39 44.16517 20.13489 36998 ft 508 kts 121°
2026-05-05 20:40 44.12841 20.21805 37009 ft 507 kts 124°
2026-05-05 20:40 44.08996 20.30122 37000 ft 508 kts 123°
2026-05-05 20:41 44.05133 20.38341 37007 ft 507 kts 123°
2026-05-05 20:41 44.01305 20.46501 37017 ft 507 kts 123°
2026-05-05 20:42 43.97423 20.54749 37020 ft 507 kts 123°
2026-05-05 20:42 43.93582 20.62879 37026 ft 507 kts 123°
2026-05-05 20:43 43.89716 20.71050 37022 ft 507 kts 123°
2026-05-05 20:43 43.85840 20.79209 37018 ft 506 kts 123°
2026-05-05 20:44 43.81963 20.87355 37011 ft 506 kts 123°
2026-05-05 20:44 43.78094 20.95473 37001 ft 505 kts 121°
2026-05-05 20:45 43.73343 21.06596 36994 ft 505 kts 121°
2026-05-05 20:45 43.69835 21.14829 36993 ft 504 kts 120°
2026-05-05 20:46 43.66265 21.23166 36995 ft 504 kts 121°
2026-05-05 20:46 43.62688 21.31492 36995 ft 504 kts 120°
2026-05-05 20:47 43.59104 21.39817 36997 ft 505 kts 121°
2026-05-05 20:47 43.55513 21.48129 37000 ft 505 kts 121°
2026-05-05 20:48 43.51910 21.56448 37002 ft 505 kts 121°
2026-05-05 20:48 43.48302 21.64753 37018 ft 506 kts 121°
2026-05-05 20:49 43.44683 21.73062 37019 ft 506 kts 121°
2026-05-05 20:49 43.41051 21.81372 37030 ft 507 kts 121°
2026-05-05 20:50 43.37411 21.89683 37025 ft 507 kts 121°
2026-05-05 20:50 43.33762 21.97987 37023 ft 508 kts 121°
2026-05-05 20:51 43.30106 22.06284 37025 ft 508 kts 121°
2026-05-05 20:51 43.26439 22.14581 37029 ft 509 kts 121°
2026-05-05 20:52 43.22765 22.22873 37033 ft 509 kts 121°
2026-05-05 20:52 43.19077 22.31171 37037 ft 510 kts 121°
2026-05-05 20:53 43.15383 22.39459 37050 ft 510 kts 121°
2026-05-05 20:53 43.11684 22.47736 37051 ft 510 kts 121°
2026-05-05 20:54 43.07971 22.56020 37053 ft 510 kts 121°
2026-05-05 20:54 43.04257 22.64283 37047 ft 510 kts 121°
2026-05-05 20:55 43.00533 22.72546 37052 ft 510 kts 121°
2026-05-05 20:55 42.96561 22.80564 37070 ft 511 kts 133°
2026-05-05 20:56 42.91431 22.87264 37051 ft 511 kts 137°
2026-05-05 20:56 42.86487 22.93556 37057 ft 511 kts 137°
2026-05-05 20:57 42.81431 23.00028 37060 ft 512 kts 137°
2026-05-05 20:57 42.76420 23.06394 37062 ft 511 kts 137°
2026-05-05 20:58 42.71227 23.12996 37060 ft 511 kts 137°
2026-05-05 20:58 42.66025 23.19583 37052 ft 511 kts 137°
2026-05-05 20:59 42.60815 23.26170 37061 ft 511 kts 137°
2026-05-05 20:59 42.55602 23.32741 37063 ft 512 kts 137°
2026-05-05 21:00 42.50384 23.39306 37061 ft 511 kts 137°
2026-05-05 21:00 42.45174 23.45844 37067 ft 511 kts 137°
2026-05-05 21:01 42.39957 23.52375 37072 ft 511 kts 137°
2026-05-05 21:01 42.34736 23.58896 37083 ft 511 kts 137°
2026-05-05 21:02 42.29515 23.65399 37082 ft 510 kts 137°
2026-05-05 21:02 42.24240 23.71814 37088 ft 510 kts 138°
2026-05-05 21:03 42.18974 23.78222 37077 ft 510 kts 137°
2026-05-05 21:03 42.13705 23.84620 37083 ft 510 kts 137°
2026-05-05 21:04 42.08425 23.91008 37083 ft 510 kts 137°
2026-05-05 21:04 42.03157 23.97378 37070 ft 509 kts 137°
2026-05-05 21:05 41.97880 24.03734 37071 ft 509 kts 137°
2026-05-05 21:05 41.92606 24.10080 37074 ft 509 kts 137°
2026-05-05 21:06 41.87328 24.16411 37074 ft 509 kts 137°
2026-05-05 21:06 41.82041 24.22742 37079 ft 510 kts 137°
2026-05-05 21:07 41.76748 24.29063 37085 ft 510 kts 137°
2026-05-05 21:07 41.71449 24.35378 37087 ft 511 kts 137°
2026-05-05 21:08 41.66142 24.41687 37086 ft 511 kts 138°
2026-05-05 21:08 41.60833 24.47985 37087 ft 511 kts 137°
2026-05-05 21:09 41.55509 24.54285 37093 ft 511 kts 137°
2026-05-05 21:09 41.50180 24.60578 37096 ft 512 kts 138°
2026-05-05 21:10 41.44882 24.66818 37090 ft 511 kts 138°
2026-05-05 21:10 41.39686 24.73280 37085 ft 511 kts 134°
2026-05-05 21:11 41.34592 24.79897 37079 ft 511 kts 134°
2026-05-05 21:11 41.29521 24.86534 37080 ft 512 kts 134°
2026-05-05 21:12 41.24432 24.93148 37079 ft 512 kts 135°
2026-05-05 21:12 41.19335 24.99772 37076 ft 512 kts 134°
2026-05-05 21:13 41.14231 25.06384 37070 ft 513 kts 135°
2026-05-05 21:13 41.09127 25.12981 37070 ft 512 kts 135°
2026-05-05 21:14 41.04009 25.19582 37064 ft 514 kts 135°
2026-05-05 21:14 40.98882 25.26179 37064 ft 515 kts 135°
2026-05-05 21:15 40.93739 25.32782 37063 ft 515 kts 135°
2026-05-05 21:15 40.88588 25.39379 37064 ft 516 kts 135°
2026-05-05 21:16 40.83427 25.45975 37063 ft 517 kts 135°
2026-05-05 21:16 40.78255 25.52570 37062 ft 517 kts 135°
2026-05-05 21:17 40.73075 25.59159 37063 ft 518 kts 135°
2026-05-05 21:17 40.67888 25.65742 37063 ft 517 kts 135°
2026-05-05 21:18 40.62696 25.72317 37063 ft 518 kts 135°
2026-05-05 21:18 40.57506 25.78874 37064 ft 517 kts 135°
2026-05-05 21:19 40.52317 25.85416 37065 ft 516 kts 135°
2026-05-05 21:19 40.47895 25.92666 37065 ft 512 kts 120°
2026-05-05 21:20 40.44085 26.00566 37069 ft 512 kts 120°
2026-05-05 21:20 40.40254 26.08450 37069 ft 512 kts 120°
2026-05-05 21:21 40.36425 26.16319 37077 ft 512 kts 120°
2026-05-05 21:21 40.32597 26.24168 37082 ft 511 kts 120°
2026-05-05 21:22 40.28765 26.31999 37081 ft 510 kts 120°
2026-05-05 21:22 40.24935 26.39813 37087 ft 510 kts 120°
2026-05-05 21:23 40.21100 26.47612 37087 ft 509 kts 121°
2026-05-05 21:23 40.17268 26.55391 37085 ft 508 kts 121°
2026-05-05 21:24 40.13441 26.63137 37083 ft 507 kts 121°
2026-05-05 21:24 40.09611 26.70871 37088 ft 507 kts 121°
2026-05-05 21:25 40.05780 26.78588 37090 ft 506 kts 121°
2026-05-05 21:25 40.01952 26.86281 37091 ft 506 kts 121°
2026-05-05 21:26 39.98114 26.93974 37095 ft 506 kts 121°
2026-05-05 21:26 39.94270 27.01660 37095 ft 506 kts 121°
2026-05-05 21:27 39.90419 27.09342 37095 ft 506 kts 121°
2026-05-05 21:27 39.86566 27.17010 37096 ft 506 kts 121°
2026-05-05 21:28 39.82703 27.24676 37099 ft 507 kts 121°
2026-05-05 21:28 39.78831 27.32340 37100 ft 507 kts 121°
2026-05-05 21:29 39.74967 27.39951 37103 ft 508 kts 122°
2026-05-05 21:29 39.71712 27.46359 37105 ft 507 kts 122°
2026-05-05 21:30 39.67820 27.54005 37101 ft 507 kts 122°
2026-05-05 21:30 39.63933 27.61641 37105 ft 507 kts 122°
2026-05-05 21:31 39.59402 27.70507 37107 ft 507 kts 122°
2026-05-05 21:31 39.56135 27.76887 37110 ft 507 kts 122°
2026-05-05 21:32 39.52231 27.84494 37101 ft 507 kts 122°
2026-05-05 21:32 39.48319 27.92096 37101 ft 507 kts 122°
2026-05-05 21:33 39.44402 27.99688 37105 ft 507 kts 122°
2026-05-05 21:33 39.40480 28.07274 37100 ft 507 kts 122°
2026-05-05 21:34 39.36578 28.14802 37102 ft 507 kts 122°
2026-05-05 21:34 39.32649 28.22364 37109 ft 507 kts 122°
2026-05-05 21:35 39.28713 28.29922 37108 ft 507 kts 122°
2026-05-05 21:35 39.24778 28.37464 37112 ft 506 kts 122°
2026-05-05 21:36 39.20845 28.44984 37114 ft 506 kts 122°
2026-05-05 21:36 39.16910 28.52490 37115 ft 505 kts 123°
2026-05-05 21:37 39.12974 28.59981 37114 ft 505 kts 123°
2026-05-05 21:37 39.09034 28.67461 37123 ft 504 kts 123°
2026-05-05 21:38 39.05087 28.74939 37121 ft 505 kts 123°
2026-05-05 21:38 39.01130 28.82416 37117 ft 506 kts 123°
2026-05-05 21:39 38.97168 28.89886 37117 ft 506 kts 123°
2026-05-05 21:39 38.93197 28.97355 37117 ft 506 kts 123°
2026-05-05 21:40 38.89220 29.04818 37115 ft 507 kts 123°
2026-05-05 21:40 38.85235 29.12281 37117 ft 507 kts 123°
2026-05-05 21:41 38.81245 29.19733 37110 ft 507 kts 123°
2026-05-05 21:41 38.77249 29.27181 37108 ft 507 kts 124°
2026-05-05 21:42 38.73250 29.34617 37107 ft 507 kts 124°
2026-05-05 21:42 38.69248 29.42042 37105 ft 506 kts 124°
2026-05-05 21:43 38.65179 29.49387 37098 ft 506 kts 126°
2026-05-05 21:43 38.61084 29.56717 37097 ft 506 kts 125°
2026-05-05 21:44 38.56930 29.63985 37087 ft 507 kts 126°
2026-05-05 21:44 38.52788 29.71275 37088 ft 507 kts 126°
2026-05-05 21:45 38.48629 29.78561 37087 ft 507 kts 126°
2026-05-05 21:45 38.44469 29.85832 37088 ft 508 kts 126°
2026-05-05 21:46 38.40301 29.93108 37082 ft 508 kts 126°
2026-05-05 21:46 38.36130 30.00365 37086 ft 507 kts 126°
2026-05-05 21:47 38.31983 30.07571 37086 ft 507 kts 126°
2026-05-05 21:47 38.27805 30.14812 37084 ft 508 kts 126°
2026-05-05 21:48 38.23628 30.22060 37083 ft 508 kts 126°
2026-05-05 21:48 38.19433 30.29297 37085 ft 508 kts 126°
2026-05-05 21:49 38.15239 30.36530 37086 ft 509 kts 126°
2026-05-05 21:49 38.11032 30.43762 37086 ft 509 kts 126°
2026-05-05 21:50 38.06820 30.50991 37083 ft 510 kts 127°
2026-05-05 21:50 38.02599 30.58216 37078 ft 510 kts 127°
2026-05-05 21:51 37.98370 30.65442 37075 ft 510 kts 127°
2026-05-05 21:51 37.94146 30.72664 37072 ft 510 kts 127°
2026-05-05 21:52 37.87807 30.83478 37065 ft 510 kts 127°
2026-05-05 21:53 37.83577 30.90676 37059 ft 509 kts 127°
2026-05-05 21:53 37.79343 30.97861 37056 ft 510 kts 127°
2026-05-05 21:54 37.75101 31.05047 37057 ft 509 kts 127°
2026-05-05 21:54 37.70890 31.12164 37054 ft 509 kts 127°
2026-05-05 21:55 37.66619 31.19365 37053 ft 509 kts 127°
2026-05-05 21:55 37.62399 31.26467 37051 ft 509 kts 127°
2026-05-05 21:56 37.58147 31.33607 37045 ft 509 kts 128°
2026-05-05 21:56 37.53892 31.40737 37047 ft 509 kts 127°
2026-05-05 21:57 37.49629 31.47866 37052 ft 509 kts 128°
2026-05-05 21:57 37.45361 31.54985 37056 ft 510 kts 128°
2026-05-05 21:58 37.41082 31.62108 37056 ft 510 kts 128°
2026-05-05 21:58 37.36795 31.69232 37060 ft 511 kts 128°
2026-05-05 21:59 37.32501 31.76336 37060 ft 511 kts 128°
2026-05-05 21:59 37.28203 31.83431 37058 ft 511 kts 128°
2026-05-05 22:00 37.23901 31.90522 37056 ft 510 kts 128°
2026-05-05 22:00 37.19601 31.97590 37058 ft 509 kts 128°
2026-05-05 22:01 37.15301 32.04644 37054 ft 509 kts 128°
2026-05-05 22:01 37.10994 32.11695 37052 ft 510 kts 128°
2026-05-05 22:02 37.06680 32.18744 37056 ft 510 kts 129°
2026-05-05 22:02 37.02360 32.25786 37056 ft 510 kts 129°
2026-05-05 22:03 36.98037 32.32820 37057 ft 510 kts 129°
2026-05-05 22:03 36.93702 32.39856 37056 ft 511 kts 129°
2026-05-05 22:04 36.89368 32.46878 37060 ft 510 kts 129°
2026-05-05 22:04 36.85054 32.53856 37063 ft 511 kts 129°
2026-05-05 22:05 36.80709 32.60877 37072 ft 511 kts 129°
2026-05-05 22:05 36.76360 32.67884 37072 ft 511 kts 129°
2026-05-05 22:06 36.72008 32.74886 37064 ft 511 kts 129°
2026-05-05 22:06 36.67644 32.81888 37061 ft 512 kts 129°
2026-05-05 22:07 36.63277 32.88884 37053 ft 511 kts 129°
2026-05-05 22:07 36.58913 32.95860 37046 ft 510 kts 130°
2026-05-05 22:08 36.54549 33.02821 37043 ft 511 kts 130°
2026-05-05 22:08 36.50182 33.09771 37038 ft 510 kts 130°
2026-05-05 22:09 36.45813 33.16713 37028 ft 510 kts 130°
2026-05-05 22:09 36.41439 33.23647 37025 ft 510 kts 130°
2026-05-05 22:10 36.37063 33.30569 37019 ft 510 kts 130°
2026-05-05 22:10 36.32678 33.37476 37020 ft 510 kts 130°
2026-05-05 22:11 36.28287 33.44384 37013 ft 510 kts 130°
2026-05-05 22:11 36.23884 33.51293 37014 ft 511 kts 130°
2026-05-05 22:12 36.19479 33.58193 37009 ft 511 kts 131°
2026-05-05 22:12 36.15063 33.65096 37011 ft 512 kts 131°
2026-05-05 22:13 36.10637 33.72001 37001 ft 512 kts 131°
2026-05-05 22:13 36.06212 33.78891 36999 ft 512 kts 131°
2026-05-05 22:14 36.01808 33.85733 36996 ft 511 kts 131°
2026-05-05 22:14 35.97353 33.92641 36993 ft 510 kts 131°
2026-05-05 22:15 35.92928 33.99490 36993 ft 510 kts 131°
2026-05-05 22:15 35.90960 34.03074 37033 ft 514 kts 120°
2026-05-05 22:15 35.89305 34.06988 37006 ft 516 kts 119°
2026-05-05 22:16 35.86059 34.14891 37012 ft 517 kts 119°
2026-05-05 22:16 35.82765 34.22767 37006 ft 517 kts 119°
2026-05-05 22:17 35.79490 34.30639 37011 ft 517 kts 119°
2026-05-05 22:17 35.76195 34.38512 37014 ft 517 kts 120°
2026-05-05 22:18 35.73433 34.45105 37016 ft 517 kts 120°
2026-05-05 22:18 35.70159 34.52905 37020 ft 516 kts 120°
2026-05-05 22:19 35.66856 34.60750 37015 ft 516 kts 120°
2026-05-05 22:19 35.63549 34.68592 37022 ft 517 kts 120°
2026-05-05 22:20 35.60234 34.76430 37014 ft 517 kts 120°
2026-05-05 22:20 35.56917 34.84256 37016 ft 517 kts 120°
2026-05-05 22:21 35.53595 34.92074 37017 ft 517 kts 121°
2026-05-05 22:21 35.50266 34.99891 37011 ft 517 kts 121°
2026-05-05 22:22 35.46936 35.07693 37005 ft 516 kts 121°
2026-05-05 22:22 35.43603 35.15482 37007 ft 516 kts 121°
2026-05-05 22:23 35.40264 35.23267 37005 ft 516 kts 121°
2026-05-05 22:23 35.36918 35.31053 37006 ft 516 kts 121°
2026-05-05 22:24 35.33565 35.38834 37002 ft 516 kts 121°
2026-05-05 22:24 35.30208 35.46609 37010 ft 517 kts 121°
2026-05-05 22:25 35.26843 35.54381 37020 ft 517 kts 122°
2026-05-05 22:25 35.23494 35.62101 37018 ft 517 kts 122°
2026-05-05 22:26 35.20704 35.70283 37042 ft 526 kts 104°
2026-05-05 22:26 35.20215 35.74721 37051 ft 530 kts 93°
2026-05-05 22:26 35.20398 35.79221 37051 ft 532 kts 81°
2026-05-05 22:27 35.21320 35.88131 37058 ft 530 kts 92°
2026-05-05 22:27 35.20979 35.92608 37056 ft 528 kts 104°
2026-05-05 22:27 35.19984 35.96893 37056 ft 522 kts 116°
2026-05-05 22:27 35.18392 36.00845 37058 ft 515 kts 127°
2026-05-05 22:28 35.16279 36.04337 37055 ft 507 kts 138°
2026-05-05 22:28 35.11497 36.10648 37041 ft 505 kts 139°
2026-05-05 22:29 35.06678 36.16902 37044 ft 506 kts 139°
2026-05-05 22:29 35.01878 36.23177 37043 ft 506 kts 139°
2026-05-05 22:30 34.97051 36.29438 37033 ft 510 kts 139°
2026-05-05 22:30 34.92190 36.35758 37031 ft 511 kts 139°
2026-05-05 22:31 34.87325 36.42055 37031 ft 510 kts 139°
2026-05-05 22:31 34.82459 36.48349 37031 ft 510 kts 139°
2026-05-05 22:32 34.77585 36.54638 37030 ft 511 kts 139°
2026-05-05 22:32 34.72708 36.60922 37034 ft 511 kts 139°
2026-05-05 22:33 34.67830 36.67195 37031 ft 510 kts 139°
2026-05-05 22:33 34.62954 36.73452 37036 ft 510 kts 139°
2026-05-05 22:34 34.58079 36.79699 37040 ft 509 kts 140°
2026-05-05 22:34 34.53207 36.85930 37047 ft 508 kts 140°
2026-05-05 22:35 34.48343 36.92139 37039 ft 507 kts 140°
2026-05-05 22:35 34.43479 36.98336 37043 ft 507 kts 140°
2026-05-05 22:36 34.38620 37.04516 37040 ft 507 kts 140°
2026-05-05 22:36 34.33762 37.10684 37041 ft 506 kts 140°
2026-05-05 22:37 34.28899 37.16847 37043 ft 507 kts 141°
2026-05-05 22:37 34.24025 37.23013 37041 ft 507 kts 141°
2026-05-05 22:37 34.21440 37.25831 37075 ft 496 kts 151°
2026-05-05 22:38 34.18602 37.28038 37070 ft 487 kts 161°
2026-05-05 22:38 34.12551 37.31672 37061 ft 486 kts 162°
2026-05-05 22:39 34.06491 37.35288 37064 ft 486 kts 162°
2026-05-05 22:39 34.00426 37.38904 37058 ft 487 kts 162°
2026-05-05 22:40 33.94358 37.42515 37054 ft 486 kts 162°
2026-05-05 22:40 33.88294 37.46119 37044 ft 486 kts 162°
2026-05-05 22:41 33.82226 37.49718 37046 ft 485 kts 162°
2026-05-05 22:41 33.76171 37.53304 37050 ft 485 kts 162°
2026-05-05 22:42 33.70129 37.56877 37045 ft 484 kts 162°
2026-05-05 22:42 33.64088 37.60443 37042 ft 483 kts 163°
2026-05-05 22:43 33.58056 37.64000 37041 ft 483 kts 163°
2026-05-05 22:43 33.52024 37.67518 37041 ft 482 kts 163°
2026-05-05 22:44 33.45977 37.70969 37044 ft 482 kts 163°
2026-05-05 22:44 33.39980 37.74425 37043 ft 481 kts 164°
2026-05-05 22:45 33.33943 37.77846 37042 ft 480 kts 164°
2026-05-05 22:45 33.27912 37.81288 37044 ft 480 kts 164°
2026-05-05 22:46 33.21877 37.84712 37044 ft 480 kts 164°
2026-05-05 22:46 33.15838 37.88139 37047 ft 481 kts 164°
2026-05-05 22:47 33.09799 37.91560 37048 ft 480 kts 165°
2026-05-05 22:47 33.03767 37.94970 37049 ft 480 kts 165°
2026-05-05 22:48 32.97742 37.98373 37047 ft 479 kts 165°
2026-05-05 22:48 32.91754 38.01868 37043 ft 480 kts 163°
2026-05-05 22:49 32.85769 38.05379 37045 ft 479 kts 164°
2026-05-05 22:49 32.79814 38.08937 37042 ft 479 kts 163°
2026-05-05 22:50 32.73863 38.12466 37048 ft 477 kts 164°
2026-05-05 22:50 32.67923 38.15989 37042 ft 477 kts 164°
2026-05-05 22:51 32.61983 38.19508 37045 ft 477 kts 164°
2026-05-05 22:51 32.56080 38.22996 37042 ft 477 kts 164°
2026-05-05 22:52 32.50142 38.26503 37045 ft 477 kts 164°
2026-05-05 22:52 32.44198 38.30006 37045 ft 477 kts 164°
2026-05-05 22:53 32.38257 38.33504 37042 ft 477 kts 165°
2026-05-05 22:53 32.32318 38.36994 37041 ft 477 kts 165°
2026-05-05 22:54 32.26375 38.40483 37050 ft 476 kts 165°
2026-05-05 22:54 32.20443 38.43959 37041 ft 476 kts 165°
2026-05-05 22:55 32.14512 38.47430 37046 ft 475 kts 165°
2026-05-05 22:55 32.08594 38.50888 37052 ft 475 kts 165°
2026-05-05 22:56 32.02676 38.54340 37044 ft 474 kts 165°
2026-05-05 22:56 31.96765 38.57785 37047 ft 474 kts 165°
2026-05-05 22:57 31.90851 38.61226 37046 ft 473 kts 165°
2026-05-05 22:57 31.84950 38.64657 37038 ft 473 kts 165°
2026-05-05 22:58 31.79051 38.68085 37051 ft 473 kts 165°
2026-05-05 22:58 31.73159 38.71502 37040 ft 472 kts 165°
2026-05-05 22:59 31.67349 38.75188 37056 ft 479 kts 159°
2026-05-05 22:59 31.61663 38.79273 37045 ft 479 kts 160°
2026-05-05 23:00 31.53148 38.85385 37043 ft 478 kts 160°
2026-05-05 23:00 31.47517 38.89416 37041 ft 477 kts 160°
2026-05-05 23:01 31.41854 38.93468 37051 ft 477 kts 160°
2026-05-05 23:01 31.36195 38.97510 37055 ft 476 kts 160°
2026-05-05 23:02 31.30535 39.01546 37059 ft 477 kts 160°
2026-05-05 23:02 31.24861 39.05588 37059 ft 478 kts 160°
2026-05-05 23:03 31.19187 39.09624 37060 ft 477 kts 160°
2026-05-05 23:03 31.13517 39.13650 37066 ft 477 kts 160°
2026-05-05 23:04 31.07853 39.17668 37063 ft 476 kts 160°
2026-05-05 23:04 31.02182 39.21683 37063 ft 477 kts 160°
2026-05-05 23:05 30.96516 39.25692 37065 ft 477 kts 160°
2026-05-05 23:05 30.90840 39.29700 37065 ft 477 kts 160°
2026-05-05 23:06 30.85158 39.33708 37061 ft 478 kts 160°
2026-05-05 23:06 30.80424 39.37043 37064 ft 479 kts 160°
2026-05-05 23:07 30.74730 39.41049 37066 ft 478 kts 160°
2026-05-05 23:07 30.69050 39.45040 37064 ft 477 kts 160°
2026-05-05 23:08 30.63364 39.49028 37066 ft 477 kts 160°
2026-05-05 23:08 30.57678 39.53012 37071 ft 477 kts 160°
2026-05-05 23:09 30.51997 39.56986 37069 ft 477 kts 160°
2026-05-05 23:09 30.46317 39.60955 37068 ft 477 kts 160°
2026-05-05 23:10 30.40902 39.65598 37086 ft 499 kts 146°
2026-05-05 23:10 30.38585 39.68659 37090 ft 512 kts 137°
2026-05-05 23:10 30.36460 39.71966 37079 ft 511 kts 137°
2026-05-05 23:11 30.32224 39.78568 37069 ft 510 kts 137°
2026-05-05 23:11 30.27977 39.85151 37065 ft 510 kts 137°
2026-05-05 23:12 30.23735 39.91734 37066 ft 510 kts 137°
2026-05-05 23:12 30.19515 39.98259 37061 ft 510 kts 137°
2026-05-05 23:13 30.15268 40.04823 37066 ft 510 kts 137°
2026-05-05 23:13 30.11021 40.11373 37069 ft 509 kts 137°
2026-05-05 23:14 30.06774 40.17912 37074 ft 508 kts 137°
2026-05-05 23:14 30.02531 40.24436 37078 ft 508 kts 137°
2026-05-05 23:15 29.98279 40.30963 37070 ft 508 kts 137°
2026-05-05 23:15 29.94079 40.37405 37067 ft 508 kts 137°
2026-05-05 23:16 29.89797 40.43961 37064 ft 508 kts 137°
2026-05-05 23:16 29.85547 40.50459 37056 ft 507 kts 137°
2026-05-05 23:17 29.81294 40.56948 37055 ft 508 kts 138°
2026-05-05 23:17 29.77043 40.63439 37057 ft 509 kts 136°
2026-05-05 23:18 29.73232 40.70420 37059 ft 516 kts 132°
2026-05-05 23:18 29.69442 40.77441 37048 ft 516 kts 132°
2026-05-05 23:19 29.65665 40.84458 37047 ft 516 kts 132°
2026-05-05 23:19 29.61874 40.91468 37043 ft 516 kts 132°
2026-05-05 23:20 29.58086 40.98472 37044 ft 516 kts 132°
2026-05-05 23:20 29.54294 41.05466 37034 ft 516 kts 132°
2026-05-05 23:21 29.50501 41.12454 37034 ft 515 kts 132°
2026-05-05 23:21 29.46704 41.19432 37043 ft 516 kts 133°
2026-05-05 23:22 29.42899 41.26416 37036 ft 516 kts 133°
2026-05-05 23:22 29.39085 41.33404 37028 ft 517 kts 133°
2026-05-05 23:23 29.35287 41.40351 37039 ft 518 kts 133°
2026-05-05 23:23 29.31435 41.47391 37030 ft 518 kts 133°
2026-05-05 23:24 29.27628 41.54335 37026 ft 518 kts 133°
2026-05-05 23:24 29.23787 41.61328 37021 ft 519 kts 133°
2026-05-05 23:25 29.19936 41.68331 37026 ft 519 kts 133°
2026-05-05 23:25 29.16079 41.75328 37019 ft 521 kts 133°
2026-05-05 23:26 29.12209 41.82340 37016 ft 521 kts 133°
2026-05-05 23:26 29.08333 41.89351 37015 ft 522 kts 133°
2026-05-05 23:27 29.04454 41.96355 37017 ft 522 kts 133°
2026-05-05 23:27 29.00560 42.03367 37015 ft 522 kts 133°
2026-05-05 23:28 28.96665 42.10373 37006 ft 523 kts 133°
2026-05-05 23:28 28.92760 42.17382 37007 ft 524 kts 133°
2026-05-05 23:29 28.88848 42.24396 37007 ft 523 kts 133°
2026-05-05 23:29 28.84936 42.31394 37004 ft 523 kts 133°
2026-05-05 23:30 28.81022 42.38388 37002 ft 523 kts 133°
2026-05-05 23:30 28.77101 42.45381 37003 ft 523 kts 133°
2026-05-05 23:31 28.73206 42.52316 37000 ft 523 kts 133°
2026-05-05 23:31 28.69280 42.59293 37000 ft 523 kts 133°
2026-05-05 23:32 28.65356 42.66252 36996 ft 521 kts 134°
2026-05-05 23:32 28.63180 42.69461 37018 ft 505 kts 144°
2026-05-05 23:32 28.60806 42.72394 37002 ft 504 kts 144°
2026-05-05 23:33 28.56030 42.78238 36997 ft 504 kts 144°
2026-05-05 23:33 28.51275 42.84085 36993 ft 503 kts 144°
2026-05-05 23:34 28.46509 42.89917 36990 ft 503 kts 144°
2026-05-05 23:34 28.41750 42.95744 36985 ft 502 kts 144°
2026-05-05 23:35 28.36993 43.01552 36983 ft 502 kts 144°
2026-05-05 23:35 28.32243 43.07348 36988 ft 502 kts 144°
2026-05-05 23:36 28.27517 43.13105 36986 ft 502 kts 144°
2026-05-05 23:36 28.22755 43.18898 36983 ft 502 kts 144°
2026-05-05 23:37 28.17992 43.24684 36980 ft 502 kts 144°
2026-05-05 23:37 28.13230 43.30461 36976 ft 501 kts 144°
2026-05-05 23:38 28.08467 43.36231 36977 ft 501 kts 144°
2026-05-05 23:38 28.03704 43.41993 36970 ft 501 kts 144°
2026-05-05 23:39 27.98942 43.47746 36968 ft 501 kts 144°
2026-05-05 23:39 27.94179 43.53491 36965 ft 501 kts 144°
2026-05-05 23:40 27.89414 43.59232 36975 ft 500 kts 144°
2026-05-05 23:40 27.84642 43.64967 36963 ft 499 kts 146°
2026-05-05 23:41 27.79687 43.70385 36967 ft 496 kts 148°
2026-05-05 23:41 27.74757 43.75754 36957 ft 495 kts 147°
2026-05-05 23:42 27.69795 43.81148 36959 ft 495 kts 148°
2026-05-05 23:42 27.64834 43.86534 36954 ft 495 kts 148°
2026-05-05 23:43 27.59869 43.91919 36956 ft 495 kts 148°
2026-05-05 23:43 27.54899 43.97299 36953 ft 495 kts 148°
2026-05-05 23:44 27.49931 44.02673 36951 ft 495 kts 148°
2026-05-05 23:44 27.44955 44.08046 36951 ft 496 kts 148°
2026-05-05 23:45 27.39977 44.13416 36948 ft 496 kts 148°
2026-05-05 23:45 27.34996 44.18781 36952 ft 496 kts 148°
2026-05-05 23:46 27.30013 44.24142 36956 ft 496 kts 147°
2026-05-05 23:46 27.25026 44.29500 36954 ft 496 kts 147°
2026-05-05 23:47 27.20037 44.34853 36945 ft 496 kts 147°
2026-05-05 23:47 27.15050 44.40198 36942 ft 495 kts 147°
2026-05-05 23:48 27.10074 44.45538 36940 ft 495 kts 147°
2026-05-05 23:48 27.05090 44.50875 36938 ft 495 kts 147°
2026-05-05 23:49 27.00145 44.56164 36939 ft 495 kts 147°
2026-05-05 23:49 26.95128 44.61519 36940 ft 495 kts 147°
2026-05-05 23:50 26.90138 44.66832 36943 ft 495 kts 147°
2026-05-05 23:50 26.85142 44.72150 36943 ft 496 kts 147°
2026-05-05 23:51 26.80171 44.77430 36942 ft 496 kts 147°
2026-05-05 23:51 26.75167 44.82741 36945 ft 495 kts 147°
2026-05-05 23:52 26.70162 44.88031 36942 ft 495 kts 147°
2026-05-05 23:52 26.65153 44.93326 36946 ft 495 kts 147°
2026-05-05 23:53 26.60147 44.98607 36946 ft 495 kts 147°
2026-05-05 23:53 26.55144 45.03881 36944 ft 494 kts 147°
2026-05-05 23:54 26.50150 45.09143 36956 ft 493 kts 147°
2026-05-05 23:54 26.45157 45.14393 36949 ft 493 kts 147°
2026-05-05 23:55 26.40172 45.19631 36949 ft 491 kts 147°
2026-05-05 23:55 26.35197 45.24850 36943 ft 490 kts 147°
2026-05-05 23:56 26.30229 45.30056 36943 ft 490 kts 147°
2026-05-05 23:56 26.26103 45.34390 36942 ft 491 kts 146°
2026-05-05 23:57 26.21140 45.39607 36942 ft 490 kts 146°
2026-05-05 23:57 26.16172 45.44812 36943 ft 491 kts 146°
2026-05-05 23:58 26.11206 45.50018 36953 ft 490 kts 146°
2026-05-05 23:58 26.06236 45.55218 36944 ft 491 kts 146°
2026-05-05 23:59 26.01264 45.60417 36936 ft 490 kts 146°
2026-05-05 23:59 25.96295 45.65604 36939 ft 490 kts 146°
2026-05-06 00:00 25.91328 45.70782 36932 ft 490 kts 146°
2026-05-06 00:00 25.86356 45.75962 36939 ft 490 kts 146°
2026-05-06 00:01 25.81379 45.81136 36935 ft 490 kts 146°
2026-05-06 00:01 25.76401 45.86306 36927 ft 491 kts 146°
2026-05-06 00:02 25.71416 45.91478 36923 ft 490 kts 146°
2026-05-06 00:02 25.66432 45.96641 36927 ft 490 kts 146°
2026-05-06 00:03 25.61446 46.01801 36916 ft 491 kts 146°
2026-05-06 00:03 25.56448 46.06966 36916 ft 492 kts 146°
2026-05-06 00:04 25.51449 46.12128 36922 ft 491 kts 145°
2026-05-06 00:04 25.46479 46.17253 36913 ft 491 kts 145°
2026-05-06 00:05 25.38974 46.24979 36910 ft 492 kts 145°
2026-05-06 00:06 25.33949 46.30145 36905 ft 494 kts 145°
2026-05-06 00:06 25.28922 46.35307 36912 ft 493 kts 145°
2026-05-06 00:07 25.23907 46.40450 36906 ft 493 kts 145°
2026-05-06 00:07 25.18884 46.45596 36920 ft 492 kts 145°
2026-05-06 00:08 25.13860 46.50736 36913 ft 493 kts 145°
2026-05-06 00:08 25.08841 46.55879 36908 ft 493 kts 142°
2026-05-06 00:08 25.06573 46.58775 36926 ft 504 kts 132°
2026-05-06 00:09 25.04739 46.62103 36926 ft 513 kts 122°
2026-05-06 00:09 25.03417 46.65785 36931 ft 521 kts 111°
2026-05-06 00:09 25.02673 46.69725 36935 ft 529 kts 100°
2026-05-06 00:09 25.02555 46.73792 36930 ft 535 kts 89°
2026-05-06 00:10 25.03091 46.77860 36937 ft 539 kts 77°
2026-05-06 00:10 25.04276 46.81785 36940 ft 541 kts 66°
2026-05-06 00:10 25.05817 46.85567 36920 ft 541 kts 66°
2026-05-06 00:11 25.08972 46.93091 36912 ft 540 kts 66°
2026-05-06 00:11 25.12097 47.00631 36914 ft 540 kts 66°
2026-05-06 00:12 25.15227 47.08169 36905 ft 540 kts 66°
2026-05-06 00:12 25.18355 47.15720 36906 ft 541 kts 66°
2026-05-06 00:13 25.21477 47.23274 36902 ft 541 kts 66°
2026-05-06 00:13 25.24601 47.30838 36897 ft 541 kts 66°
2026-05-06 00:14 25.27718 47.38405 36888 ft 541 kts 66°
2026-05-06 00:14 25.30831 47.45971 36885 ft 541 kts 66°
2026-05-06 00:15 25.33941 47.53548 36884 ft 541 kts 66°
2026-05-06 00:15 25.37049 47.61129 36878 ft 542 kts 66°
2026-05-06 00:16 25.40136 47.68675 36877 ft 542 kts 66°
2026-05-06 00:16 25.43240 47.76278 36867 ft 542 kts 66°
2026-05-06 00:17 25.46338 47.83892 36863 ft 543 kts 66°
2026-05-06 00:17 25.49436 47.91510 36860 ft 543 kts 66°
2026-05-06 00:18 25.52528 47.99133 36856 ft 543 kts 66°
2026-05-06 00:18 25.55625 48.06766 36854 ft 543 kts 66°
2026-05-06 00:19 25.58715 48.14400 36849 ft 543 kts 66°
2026-05-06 00:19 25.61800 48.22035 36844 ft 544 kts 66°
2026-05-06 00:20 25.64886 48.29687 36845 ft 544 kts 66°
2026-05-06 00:20 25.67652 48.37468 36848 ft 542 kts 79°
2026-05-06 00:20 25.68204 48.41577 36847 ft 538 kts 91°
2026-05-06 00:21 25.68123 48.45695 36840 ft 533 kts 98°
2026-05-06 00:21 25.67605 48.53905 36825 ft 533 kts 98°
2026-05-06 00:22 25.67075 48.62100 36825 ft 533 kts 98°
2026-05-06 00:22 25.66552 48.70304 36820 ft 533 kts 98°
2026-05-06 00:23 25.66013 48.78497 36822 ft 533 kts 98°
2026-05-06 00:23 25.65479 48.86690 36815 ft 533 kts 98°
2026-05-06 00:24 25.64938 48.94824 36811 ft 533 kts 98°
2026-05-06 00:24 25.64393 49.03010 36803 ft 533 kts 98°
2026-05-06 00:25 25.63841 49.11191 36801 ft 532 kts 98°
2026-05-06 00:25 25.63286 49.19377 36797 ft 532 kts 98°
2026-05-06 00:26 25.62726 49.27551 36795 ft 532 kts 98°
2026-05-06 00:26 25.62161 49.35728 36793 ft 532 kts 98°
2026-05-06 00:27 25.61592 49.43902 36786 ft 532 kts 98°
2026-05-06 00:27 25.61017 49.52083 36789 ft 533 kts 98°
2026-05-06 00:28 25.60438 49.60269 36781 ft 534 kts 98°
2026-05-06 00:28 25.59853 49.68467 36781 ft 533 kts 98°
2026-05-06 00:29 25.59264 49.76658 36781 ft 534 kts 98°
2026-05-06 00:29 25.58670 49.84859 36779 ft 535 kts 98°
2026-05-06 00:30 25.58070 49.93068 36776 ft 535 kts 98°
2026-05-06 00:30 25.57466 50.01276 36775 ft 535 kts 98°
2026-05-06 00:31 25.56856 50.09492 36771 ft 535 kts 98°
2026-05-06 00:31 25.56126 50.17677 36781 ft 530 kts 107°
2026-05-06 00:32 25.54072 50.25119 36776 ft 525 kts 114°
2026-05-06 00:32 25.51739 50.32750 36448 ft 518 kts 113°
2026-05-06 00:32 25.50593 50.36537 34894 ft 524 kts 113°
2026-05-06 00:33 25.49427 50.40382 33357 ft 529 kts 112°
2026-05-06 00:33 25.48249 50.44253 31770 ft 530 kts 112°
2026-05-06 00:33 25.47071 50.48118 30209 ft 529 kts 112°
2026-05-06 00:33 25.45897 50.51971 28358 ft 528 kts 111°
2026-05-06 00:34 25.44725 50.55809 26782 ft 522 kts 111°
2026-05-06 00:34 25.43595 50.59516 25671 ft 502 kts 111°
2026-05-06 00:34 25.42444 50.63112 24360 ft 487 kts 114°
2026-05-06 00:34 25.41220 50.66511 23090 ft 476 kts 112°
2026-05-06 00:35 25.40048 50.69875 21721 ft 463 kts 112°
2026-05-06 00:35 25.38908 50.73133 20925 ft 444 kts 112°
2026-05-06 00:35 25.37777 50.76303 20797 ft 451 kts 112°
2026-05-06 00:35 25.36632 50.79509 20404 ft 449 kts 112°
2026-05-06 00:36 25.35494 50.82730 19882 ft 448 kts 111°
2026-05-06 00:36 25.34364 50.85930 19454 ft 444 kts 111°
2026-05-06 00:36 25.33239 50.89092 19002 ft 441 kts 111°
2026-05-06 00:36 25.32120 50.92231 18550 ft 438 kts 111°
2026-05-06 00:37 25.31010 50.95351 18116 ft 434 kts 111°
2026-05-06 00:37 25.29911 50.98442 17609 ft 431 kts 111°
2026-05-06 00:37 25.28817 51.01515 17079 ft 428 kts 111°
2026-05-06 00:37 25.27728 51.04566 16550 ft 426 kts 110°
2026-05-06 00:38 25.26958 51.07701 16009 ft 422 kts 97°
2026-05-06 00:38 25.26850 51.10923 15498 ft 418 kts 89°
2026-05-06 00:38 25.26883 51.14119 15001 ft 415 kts 88°
2026-05-06 00:38 25.26943 51.17296 14503 ft 412 kts 88°
2026-05-06 00:39 25.26983 51.20448 14027 ft 409 kts 88°
2026-05-06 00:39 25.27008 51.23577 13549 ft 406 kts 88°
2026-05-06 00:39 25.27363 51.26634 12966 ft 400 kts 73°
2026-05-06 00:39 25.28167 51.29536 12431 ft 396 kts 71°
2026-05-06 00:40 25.29007 51.32397 12109 ft 386 kts 70°
2026-05-06 00:40 25.29822 51.35161 11398 ft 367 kts 70°
2026-05-06 00:40 25.30583 51.37822 10639 ft 352 kts 71°
2026-05-06 00:40 25.31287 51.40308 10246 ft 326 kts 70°
2026-05-06 00:41 25.31946 51.42599 9980 ft 300 kts 70°
2026-05-06 00:41 25.32559 51.44724 9499 ft 286 kts 70°
2026-05-06 00:41 25.33158 51.46800 9003 ft 277 kts 70°
2026-05-06 00:41 25.33738 51.48821 8990 ft 278 kts 70°
2026-05-06 00:42 25.34339 51.50910 9002 ft 290 kts 70°
2026-05-06 00:42 25.34941 51.53018 9006 ft 286 kts 70°
2026-05-06 00:42 25.35531 51.55084 9003 ft 286 kts 70°
2026-05-06 00:42 25.36139 51.57206 9001 ft 285 kts 70°
2026-05-06 00:43 25.36735 51.59289 9003 ft 285 kts 70°
2026-05-06 00:43 25.37330 51.61372 8900 ft 281 kts 70°
2026-05-06 00:43 25.37795 51.63443 8653 ft 280 kts 85°
2026-05-06 00:43 25.37531 51.65531 8505 ft 276 kts 109°
2026-05-06 00:44 25.36502 51.67311 8207 ft 279 kts 134°
2026-05-06 00:44 25.34892 51.68467 7997 ft 274 kts 158°
2026-05-06 00:44 25.33122 51.69253 8006 ft 277 kts 157°
2026-05-06 00:44 25.31319 51.70049 8006 ft 278 kts 158°
2026-05-06 00:45 25.29523 51.70833 8009 ft 279 kts 158°
2026-05-06 00:45 25.27722 51.71623 7961 ft 276 kts 158°
2026-05-06 00:45 25.26535 51.72145 7699 ft 278 kts 158°
2026-05-06 00:45 25.24715 51.72946 7426 ft 277 kts 158°
2026-05-06 00:46 25.22950 51.73721 7150 ft 276 kts 158°
2026-05-06 00:46 25.21171 51.74502 6876 ft 275 kts 157°
2026-05-06 00:46 25.19417 51.75271 6317 ft 271 kts 157°
2026-05-06 00:46 25.17666 51.76040 5745 ft 269 kts 157°
2026-05-06 00:47 25.15937 51.76799 5185 ft 266 kts 157°
2026-05-06 00:47 25.14236 51.77544 4896 ft 264 kts 156°
2026-05-06 00:47 25.12524 51.78295 4592 ft 265 kts 156°
2026-05-06 00:47 25.10785 51.79058 4289 ft 265 kts 156°
2026-05-06 00:48 25.09097 51.79797 4039 ft 260 kts 156°
2026-05-06 00:48 25.07489 51.80499 4003 ft 237 kts 156°
2026-05-06 00:48 25.06017 51.81142 3985 ft 219 kts 156°
2026-05-06 00:48 25.04597 51.81738 3603 ft 220 kts 159°
2026-05-06 00:49 25.03120 51.81686 3497 ft 218 kts 201°
2026-05-06 00:49 25.01905 51.80668 3495 ft 224 kts 235°
2026-05-06 00:49 25.01379 51.79085 3497 ft 221 kts 268°
2026-05-06 00:49 25.01563 51.77416 3515 ft 220 kts 283°
2026-05-06 00:50 25.01870 51.75766 3518 ft 220 kts 284°
2026-05-06 00:50 25.02161 51.74109 3515 ft 221 kts 283°
2026-05-06 00:50 25.02432 51.72448 3516 ft 220 kts 282°
2026-05-06 00:50 25.02967 51.70902 3491 ft 217 kts 311°
2026-05-06 00:51 25.04145 51.69936 3498 ft 211 kts 340°
2026-05-06 00:51 25.05516 51.69348 3508 ft 211 kts 341°
2026-05-06 00:51 25.06859 51.68780 3506 ft 199 kts 341°
2026-05-06 00:51 25.08104 51.68232 3410 ft 190 kts 341°
2026-05-06 00:52 25.09319 51.67695 3188 ft 187 kts 341°
2026-05-06 00:52 25.10518 51.67164 2962 ft 184 kts 341°
2026-05-06 00:52 25.11697 51.66644 2736 ft 180 kts 341°
2026-05-06 00:52 25.12847 51.66135 2523 ft 174 kts 341°
2026-05-06 00:53 25.13960 51.65646 2310 ft 169 kts 341°
2026-05-06 00:53 25.15028 51.65177 2097 ft 160 kts 341°
2026-05-06 00:53 25.16022 51.64735 1901 ft 150 kts 341°
2026-05-06 00:53 25.16987 51.64315 1713 ft 149 kts 342°
2026-05-06 00:54 25.17952 51.63893 1537 ft 150 kts 341°
2026-05-06 00:54 25.18923 51.63462 1347 ft 150 kts 341°
2026-05-06 00:54 25.19893 51.63030 1167 ft 150 kts 341°
2026-05-06 00:54 25.20855 51.62605 970 ft 148 kts 341°
2026-05-06 00:55 25.21687 51.62253 836 ft 148 kts 341°
2026-05-06 00:55 25.22486 51.61911 696 ft 148 kts 339°
2026-05-06 00:55 25.23439 51.61486 492 ft 149 kts 338°
2026-05-06 00:55 25.24395 51.61058 313 ft 146 kts 338°
2026-05-06 00:56 25.25340 51.60643 124 ft 147 kts 338°
2026-05-06 00:56 25.26249 51.60246 26 ft 126 kts 338°
2026-05-06 00:56 25.26878 51.59963 22 ft 69 kts 338°
2026-05-06 00:56 25.27195 51.59825 22 ft 35 kts 349°
2026-05-06 00:57 25.27349 51.59832 23 ft 12 kts
2026-05-06 00:57 25.27387 51.59838 25 ft 0 kts
2026-05-06 00:57 25.27396 51.59840 25 ft 3 kts
2026-05-06 00:57 25.27410 51.59846 25 ft 3 kts 32°
2026-05-06 00:58 25.27430 51.59882 28 ft 7 kts 79°
2026-05-06 00:58 25.27422 51.59920 30 ft 2 kts 130°
2026-05-06 00:58 25.27415 51.59925 29 ft 2 kts 146°
2026-05-06 00:58 25.27392 51.59937 29 ft 7 kts 155°
2026-05-06 00:59 25.27321 51.59969 29 ft 14 kts 159°
2026-05-06 00:59 25.27231 51.60009 29 ft 14 kts 158°
2026-05-06 00:59 25.27136 51.60053 29 ft 14 kts 158°
2026-05-06 00:59 25.27055 51.60090 30 ft 6 kts 155°
2026-05-06 01:00 25.27039 51.60107 29 ft 2 kts 124°
2026-05-06 01:00 25.27034 51.60119 27 ft 1 kts 113°
2026-05-06 01:00 25.27031 51.60133 27 ft 3 kts 99°
2026-05-06 01:00 25.27034 51.60154 26 ft 2 kts 70°
2026-05-06 01:01 25.27047 51.60193 27 ft 8 kts 69°
2026-05-06 01:01 25.27074 51.60267 27 ft 12 kts 68°
2026-05-06 01:01 25.27107 51.60356 28 ft 13 kts 68°
2026-05-06 01:01 25.27144 51.60458 28 ft 15 kts 68°
2026-05-06 01:02 25.27180 51.60559 28 ft 8 kts 68°
2026-05-06 01:02 25.27197 51.60617 28 ft 5 kts 90°
2026-05-06 01:02 25.27191 51.60636 28 ft 3 kts 117°
2026-05-06 01:02 25.27178 51.60652 28 ft 3 kts 141°
2026-05-06 01:03 25.27164 51.60659 28 ft 4 kts 159°
2026-05-06 01:03 25.27125 51.60675 28 ft 8 kts 161°
2026-05-06 01:03 25.27064 51.60700 28 ft 9 kts 150°
2026-05-06 01:03 25.27050 51.60723 28 ft 1 kts 103°
2026-05-06 01:04 25.27051 51.60732 28 ft 1 kts 82°
2026-05-06 01:04 25.27057 51.60752 28 ft 7 kts 70°
2026-05-06 01:04 25.27080 51.60819 28 ft 9 kts 68°
2026-05-06 01:04 25.27084 51.60853 28 ft 2 kts 110°
2026-05-06 01:05 25.27079 51.60860 28 ft 1 kts 141°
2026-05-06 01:05 25.27072 51.60863 28 ft 2 kts 152°
2026-05-06 01:05 25.27050 51.60875 28 ft 5 kts 157°
2026-05-06 01:05 25.27009 51.60894 28 ft 7 kts 158°
2026-05-06 01:06 25.27001 51.60897 28 ft 0 kts 158°